Regional Weather Roundup
Issued by NWS

Home | Current Version | Previous Version | Text Only | Print | Product List | Glossary On
Versions: 1 2 3 4 5 6 7 8 9 10 11 12 13 14 15 16 17 18 19 20 21 22 23 24 25 26 27 28 29 30 31 32 33 34 35 36 37 38 39 40 41 42 43 44 45 46 47 48 49 50
000
ASCA44 KEWX 051720
RWRMX

LATIN AMERICA AND CARIBBEAN REGIONAL WEATHER ROUNDUP
NATIONAL WEATHER SERVICE AUSTIN/SAN ANTONIO TX
1200 PM CDT SUN JUL 05 2015

NOTE: "FAIR" INDICATED FEW OR NO CLOUDS BELOW 12,000 FEET WITH NO
SIGNIFICANT WEATHER AND/OR OBSTRUCTIONS TO VISIBILITY.

BAJA CALIFORNIA

CITY           SKY/WX    TMP DP  RH WIND       PRES   REMARKS
LORETO         MOSUNNY   88  70  55 CALM      29.88S HX  92
LA PAZ         MOSUNNY   88  52  29 S7        29.94F
MEXICALI       SUNNY     91  68  46 SE12      29.83S HX  95
S.J. DEL CABO  MOSUNNY   93  68  43 W6        29.93F HX  97
TIJUANA        CLOUDY    66  55  68 CALM      30.03R

NORTHWESTERN MEXICO

CITY           SKY/WX    TMP DP  RH WIND       PRES   REMARKS
CULIACAN       MOSUNNY   90  75  62 SE8       29.96F HX 100
DURANGO        PTSUNNY   72  59  64 CALM      30.32S
GUAYMAS        MOSUNNY   93  81  66 CALM      29.87F HX 113
HERMOSILLO     MOSUNNY   91  72  52 SE8       29.97S HX  98
CD. JUAREZ     MOSUNNY   84  66  54 SW9       30.04F
LOS MOCHIS     PTSUNNY   88  70  55 S9        29.94S HX  92
OBREGON        MOSUNNY   91  70  49 SE6       29.91S HX  97

NORTHEASTERN MEXICO

CITY           SKY/WX    TMP DP  RH WIND       PRES   REMARKS
CHIHUAHUA      MOSUNNY   79  57  47 CALM      30.17F
MATAMOROS      PTSUNNY   88  77  70 SE23      30.04S HX 100
MONCLOVA         N/A    N/A N/A N/A MISG        N/A
MONTERREY      CLOUDY    79  68  69 SE5       30.02S
NUEVO LAREDO   PTSUNNY   88  70  55 SE14      30.00S HX  92
PIEDRAS NEGRAS MOSUNNY   86  72  62 SE9       30.02S HX  92
REYNOSA        PTSUNNY   86  70  58 SE17G29   30.00F HX  90
SALTILLO       PTSUNNY   86  61  42 S9        30.21S
TORREON        MOSUNNY   86  63  45 N5        30.12F
CD. VICTORIA   MOSUNNY   88  68  51 S17       30.04F HX  91

WESTERN MEXICO

CITY           SKY/WX    TMP DP  RH WIND       PRES   REMARKS
AGUASCALIENTES PTSUNNY   66  54  63 W5        30.36S
COLIMA         MOSUNNY   84  68  58 CALM      30.08R
DEL BAJIO      PTSUNNY   72  61  68 S5        30.38S
GUADALAJARA    PTSUNNY   75  59  57 E6        30.27S
MANZANILLO       N/A    N/A N/A N/A MISG        N/A
MAZATLAN       MOSUNNY   88  72  58 S9        29.94F HX  94
P. VALLARTA    MOSUNNY   86  77  74 SW7       29.95F HX  97
URUAPAN        PTSUNNY   75  63  64 CALM      30.25F
ZACATECAS      MOSUNNY   68  52  56 S12       30.36S

CENTRAL MEXICO

CITY           SKY/WX    TMP DP  RH WIND       PRES   REMARKS
CUERNAVACA     PTSUNNY   72  61  68 CALM      30.25
MEXICO CITY    PTSUNNY   68  52  56 VRB3      30.42S
MORELIA        PTSUNNY   72  57  60 CALM      30.32F
POZA RICA      CLOUDY    81  75  83 CALM      30.07S
PUEBLA         PTSUNNY   68  52  56 SE5       30.41S
QUERETARO      PTSUNNY   70  57  64 NE5       30.38F
S. LUIS POTOSI PTSUNNY   70  55  60 E6        30.32F
TAMPICO        PTSUNNY   79  73  83 SW5       30.05R
TOLUCA         PTSUNNY   61  48  63 CALM      30.49S

SOUTHERN MEXICO

CITY           SKY/WX    TMP DP  RH WIND       PRES   REMARKS
ACAPULCO       MOSUNNY   90  79  70 SW6       29.89F HX 105
B. DE HUATULCO CLOUDY    88  75  66 CALM      29.98S HX  97
OAXACA         PTSUNNY   73  55  53 CALM      30.28F
P. ESCONDIDO   PTSUNNY   88  75  66 E9        30.01S HX  97
VERACRUZ       PTSUNNY   86  77  74 N6        30.04S HX  97
ZIHUATANEJO    MOSUNNY   91  75  59 SW12      29.90F HX 102

YUCATAN PENINSULA

CITY           SKY/WX    TMP DP  RH WIND       PRES   REMARKS
CAMPECHE       MOSUNNY   90  75  62 E12G25    30.02F HX 100
CANCUN         PTSUNNY   88  77  70 NE9       30.09S HX 100
CHETUMAL       MOSUNNY   88  75  66 SE10      30.05S HX  97
CD. DEL CARMEN MOSUNNY   88  72  58 E14       30.01F HX  94
COZUMEL        PTSUNNY   86  75  70 E12       30.09S HX  95
MERIDA         PTSUNNY   90  75  62 E5        30.07F HX 100
MINATITLAN     PTSUNNY   84  68  58 NE12      29.95S
TAPACHULA      MOSUNNY   90  81  74 CALM      29.92S HX 108
TUX. GUTIERREZ PTSUNNY   84  63  48 E9        30.01F
VILLAHERMOSA   PTSUNNY   90  72  55 E23       30.00F HX  96

CENTRAL AMERICA

CITY           SKY/WX    TMP DP  RH WIND       PRES   REMARKS
BELIZE CITY    PTSUNNY   88  81  79 E14       30.02F HX 105
MANAGUA        PTSUNNY   88  73  62 E12       29.86S HX  96

CARIBBEAN

CITY           SKY/WX    TMP DP  RH WIND       PRES   REMARKS
ARUBA          MOSUNNY   90  79  70 E29G40    29.92S HX 105
CURACAO        MOSUNNY   86  75  70 E14       29.97S HX  95
KINGSTON       MOSUNNY   90  73  58 SE29      30.00S HX  98
NASSAU         PTSUNNY   88  73  62 E10       30.18  HX  96
SAN JUAN       MOSUNNY   88  77  70 NE18      30.10F HX 100
SANTO DOMINGO  PTSUNNY   90  72  55 S9        30.06S HX  96
ST. CROIX      MOSUNNY   86  73  66 E16       30.08F HX  93
ST. KITTS      MOSUNNY   88  75  66 NE22      30.06S HX  97
ST. MAARTEN    PTSUNNY   86  72  62 E15       30.06S HX  92
ST. THOMAS     MOSUNNY   91  73  55 E14G23    30.09  HX 100

$$



USA.gov is the U.S. government's official web portal to all federal, state and local government web resources and services.